GSAT0218 (PRN E31)

Last updated on Jan. 19, 2021, 6:23 a.m. UTC

1 43058U 17079D   21018.54843128 -.00000017  00000-0  00000-0 0  9990
2 43058  56.1022 275.8891 0004309 296.3938  63.6303  1.70473924 19338
UTC
Height (km)
Latitude
Longitude
Inclination
Orbital Period
UTC large
Height (km)
Speed (km/s)
/
Latitude / Longitude
Inclination (degrees)
Orbital Period (minutes)
Azimuth
Elevation
Range (km)
Doppler Factor
iOS Compass Heading
iOS Angle

Next 30 passes for location: Hong Kong

Rise time Rise Azimuth (degrees) Set time Set Azimuth (degrees) Duration Max altitude (degrees)

No matching passes for this satellites